User: anonymous   Login
Location: Unspecified
(0.0000°N, 0.0000°E)
Time: 12:22:43
(UTC+00:00)
Language:

HJ-1B - Orbit

View from above orbital plane
View from above orbital plane
View from above satellite
View from above satellite

Ground track
Ground track

The orbit data is extracted from the following two-line orbital elements,

1 33321U 08041B   18289.20456438  .00000127  00000-0  25244-4 0  9996
2 33321  97.8816 350.6922 0033300 272.9879  86.7539 14.77057357544516
Epoch (UTC): 16 October 2018 04:54:34
Eccentricity: 0.0033300
inclination: 97.8816°
perigee height: 615 km
apogee height: 662 km
right ascension of ascending node: 350.6922°
argument of perigee: 272.9879°
revolutions per day: 14.77057357
mean anomaly at epoch: 86.7539°
orbit number at epoch: 54451

The dashed part of the orbit path shows where the satellite is in the earth's shadow,  

DLR